sat.trackr.live / text

‹ back to catalog

STARLINK-5600

NORAD 57357 · 2023-099AF

PAYLOAD ACTIVE UNKNOWN

§ Identity

Operator
Country
US
Launch date
2023-07-16
Launch site
AFETR
Launch vehicle
Mass (kg)
RCS (m²)

Purposes: comms

External: N2YO · Heavens-Above · Gunter

§ Orbital elements

Epoch: 2026-09-20T05:32:42.410688Z

Period
94.27 min
Inclination
43.0017°
Eccentricity
0.0001432
Mean motion
15.27577369 rev/d
Perigee alt
482.1 km
Apogee alt
484.0 km
Semi-major
6,861.2 km
B*
1.4756e-5
RAAN
222.8668°
Arg perigee
261.2899°
Mean anomaly
98.7791°
Rev number
17,595

§ Raw data

STARLINK-56001 57357U 23099AF  26263.23104642  .00000144  00000+0  14756-4 0  99962 57357  43.0017 222.8668 0001432 261.2899  98.7791 15.27577369175955

JSON: /api/v1/satellites/57357 · /tle

For live sub-satellite position, see the globe view (requires WebGL).

§ Visibility from observer

Set your observer location to see the next 7 days of passes ≥ 10°. The values pass through the URL so the page stays shareable.

No JS? Fill the form by hand. The geolocation button needs JavaScript.